Theta_e
357 356 357 358 358 357 356 355 354 353 354 355 355 355 356 356 355 355 354 354 353 353 354 355 354 354 355 356 356 356 357 358 358 358 357 356 357 356 355 357 358 357 356 355 355 356 358 357 357 357 357 357 356 355 355 355 355 354 354 355 354 354 355 357 359 359 357 355 355 354 353 353 353 352 351 351 349 349 349 349 348 349 350 350 350
357 357 356 356 357 356 355 355 355 354 354 355 356 356 357 356 356 355 354 354 354 353 353 353 353 353 354 355 355 356 357 357 358 359 358 356 356 356 355 357 358 357 356 356 355 356 358 358 357 357 358 357 356 356 356 355 354 354 353 352 352 353 354 357 358 359 358 356 355 354 353 353 354 352 351 351 350 350 350 350 351 351 351 350 349
358 357 357 356 355 355 354 355 356 356 354 355 356 357 357 356 356 356 355 354 354 354 353 352 352 353 354 355 356 356 356 356 356 357 357 357 357 357 357 357 358 358 357 356 355 355 357 357 356 356 356 356 356 356 357 356 355 354 352 351 352 352 353 356 357 358 358 357 356 355 354 355 353 350 349 350 351 351 351 351 351 350 349 349 348
358 358 357 356 356 356 355 355 356 356 355 355 356 356 355 354 355 355 355 354 353 354 354 353 353 353 354 355 355 356 356 356 355 355 356 357 357 357 358 358 358 358 358 357 356 356 357 357 356 356 356 356 357 357 356 356 355 354 354 353 354 353 352 354 355 357 358 357 356 356 355 354 351 348 350 352 352 351 351 351 350 349 348 348 349
358 358 358 357 357 358 358 357 356 356 356 356 356 355 354 352 353 353 353 352 352 353 353 353 353 353 354 354 355 355 355 355 354 354 356 358 358 358 358 358 359 359 358 357 357 357 357 358 358 357 357 356 356 355 354 355 355 354 354 354 353 353 353 353 354 356 357 357 357 355 353 351 350 351 353 355 354 352 352 349 348 348 349 349 348
358 357 357 357 357 358 358 358 357 356 356 356 356 354 353 353 352 352 352 352 352 352 352 352 352 353 354 354 354 354 354 355 355 355 357 358 359 358 358 358 358 359 359 358 357 357 356 357 357 357 357 356 355 354 353 353 354 354 353 353 353 354 354 354 355 356 356 356 355 352 351 352 354 354 353 355 356 355 353 351 349 350 352 352 348
356 357 357 357 357 357 357 357 357 356 356 355 355 354 353 353 352 352 351 351 352 352 351 352 352 353 353 353 354 354 354 355 355 356 357 358 358 358 358 358 358 358 357 357 356 355 355 355 355 355 355 354 353 352 352 353 354 353 353 353 353 355 356 356 356 356 355 354 351 351 353 354 354 353 351 352 354 354 356 355 353 353 354 353 349
352 354 356 356 356 356 356 356 355 355 355 355 354 354 353 351 350 349 351 351 351 351 351 351 351 352 352 352 353 353 354 355 355 357 357 358 358 358 358 358 358 356 355 355 355 354 354 354 354 353 353 353 352 351 351 353 354 353 353 354 355 355 356 355 354 354 353 352 351 352 354 353 350 349 349 350 354 356 357 357 357 356 354 350 348
352 352 353 353 354 354 354 354 354 354 355 354 354 353 352 350 349 349 350 350 350 351 350 349 349 351 352 352 351 353 355 355 356 357 357 357 357 358 357 358 358 357 356 355 354 353 353 352 351 352 352 351 350 351 351 352 353 352 352 355 356 355 354 352 351 350 350 349 349 350 351 350 349 349 350 352 356 357 357 357 356 354 350 348 349
354 353 352 351 353 353 352 353 353 353 353 353 352 352 350 350 350 349 349 349 350 351 351 349 348 348 351 351 351 353 356 356 357 358 357 357 356 356 357 358 358 358 357 355 353 353 353 353 352 353 353 351 350 351 352 353 353 353 354 354 354 353 351 349 347 348 349 350 350 351 351 351 352 352 353 354 355 357 357 355 352 349 348 349 352
352 353 353 352 352 352 352 353 353 352 353 353 352 351 350 350 349 350 350 350 350 351 352 350 348 348 349 350 352 355 357 357 357 357 357 356 355 356 357 358 359 358 356 354 354 353 352 352 352 353 352 351 350 349 350 351 352 354 354 353 351 350 349 349 350 352 354 355 356 356 355 354 354 354 354 355 355 356 354 349 345 345 348 351 353
351 353 355 354 353 352 352 353 354 353 353 355 356 355 354 353 352 351 352 353 353 353 353 352 351 350 349 350 352 355 357 356 356 357 357 356 354 353 353 356 359 358 355 354 353 352 352 351 351 351 350 350 350 349 350 349 350 352 353 352 350 350 352 355 356 357 357 358 358 357 356 355 354 354 354 353 352 351 346 340 339 343 348 350 352
350 352 354 354 353 354 354 354 355 353 353 355 357 358 358 359 358 357 356 356 356 355 354 354 354 353 352 350 350 352 352 352 353 353 353 352 350 349 350 354 358 358 355 354 353 352 352 351 351 350 349 349 349 350 349 349 350 352 353 352 351 353 357 358 357 357 358 358 356 354 354 354 352 352 348 343 342 340 336 333 336 340 343 347 352
347 349 352 353 353 354 355 355 355 355 354 354 355 357 358 359 360 359 358 356 354 352 351 352 354 354 354 351 350 349 348 349 349 349 349 349 348 349 352 356 358 357 355 354 352 352 351 351 351 350 350 350 350 350 349 351 354 356 357 356 355 356 358 357 356 357 357 356 355 353 353 349 345 343 338 334 334 335 334 336 337 337 339 347 354
347 348 349 350 351 352 354 355 355 355 355 354 355 356 356 357 357 357 356 354 352 350 350 351 353 354 354 354 353 351 349 348 348 348 348 350 350 351 353 356 356 355 354 353 353 352 352 351 351 350 350 351 350 350 350 352 356 358 358 358 357 357 357 356 357 357 356 356 355 352 347 342 337 335 334 335 336 338 340 340 337 339 344 350 351
346 347 348 349 350 351 352 353 354 354 354 354 354 353 351 352 354 353 353 352 351 351 350 351 353 354 354 353 353 351 351 351 350 349 350 351 352 352 352 353 354 354 354 353 353 352 352 351 351 351 352 351 351 351 352 354 356 357 358 358 357 356 355 355 356 354 354 355 351 344 338 334 335 336 337 339 341 343 346 345 343 346 349 348 346
343 345 346 347 348 349 350 351 351 352 352 352 352 351 349 350 351 351 351 351 351 351 351 351 352 353 353 353 352 350 350 349 348 348 350 351 352 353 353 353 353 354 354 353 353 353 352 352 352 352 352 352 352 352 353 354 355 356 356 356 355 353 352 351 348 346 346 345 341 337 333 333 337 339 339 344 348 349 349 346 344 346 346 347 348
340 342 343 344 345 346 346 348 348 349 349 350 349 349 348 348 349 349 349 350 349 349 349 349 350 352 352 352 351 349 348 346 345 345 346 348 351 354 355 355 355 354 354 353 353 352 353 353 354 354 354 354 354 353 353 354 353 353 353 353 351 351 349 346 344 342 340 339 338 336 333 334 339 340 342 348 351 349 346 343 343 345 346 347 347
338 340 341 341 342 342 342 343 344 344 345 344 344 344 344 345 345 346 346 346 346 346 346 346 348 350 350 349 348 347 345 344 344 344 345 347 350 352 355 354 354 354 353 353 353 352 352 352 352 353 353 353 353 353 352 352 351 349 348 346 344 343 343 342 341 338 338 339 337 333 332 337 341 342 345 347 346 343 343 343 345 346 345 343 342
337 338 339 339 338 338 338 338 339 339 340 342 342 342 342 343 343 344 344 344 344 344 345 345 346 346 344 343 342 341 339 339 340 342 345 348 349 351 353 354 353 354 354 353 352 351 351 351 350 350 351 351 351 351 351 350 347 341 336 333 331 332 334 335 334 334 336 335 331 331 336 340 341 342 345 345 341 339 342 344 345 345 343 341 339
334 335 335 336 335 336 336 335 335 336 337 340 340 337 336 338 341 343 343 342 341 341 342 343 342 339 337 335 335 334 333 333 334 337 341 345 347 349 350 351 352 353 353 352 352 352 351 350 346 344 346 347 347 348 348 345 339 331 328 329 331 331 333 333 333 335 334 328 328 336 341 340 341 342 342 341 338 339 342 345 344 342 341 340 337
331 333 333 333 333 333 333 333 334 334 336 338 337 335 334 336 338 340 341 339 337 337 338 338 337 334 331 331 330 329 329 329 329 331 335 338 339 339 339 341 345 348 349 349 349 349 347 345 343 343 346 348 347 347 343 338 331 327 328 331 333 334 334 334 334 331 325 323 331 340 341 339 341 341 339 338 337 338 342 344 342 340 339 338 335
326 329 330 330 330 330 330 331 332 333 334 334 334 334 335 335 336 339 340 337 334 333 332 332 331 330 328 328 328 327 327 327 328 328 329 331 332 332 332 334 337 339 340 341 342 345 345 344 343 342 342 342 341 340 337 334 331 330 331 333 334 333 331 328 324 320 321 329 338 340 338 340 342 340 338 338 335 335 341 343 340 337 337 335 333
324 325 324 323 324 325 326 328 328 328 330 331 331 332 333 333 334 335 338 338 334 330 329 328 328 327 326 326 327 327 326 327 327 326 324 323 322 323 326 329 331 333 334 333 334 337 340 339 337 336 336 335 334 333 331 330 331 331 330 329 325 321 319 318 318 321 328 337 339 337 338 340 341 339 339 337 333 333 338 340 337 335 334 333 330
323 322 322 320 320 319 320 321 321 321 322 322 322 323 327 330 332 332 335 337 336 334 331 329 327 325 326 326 327 327 326 327 326 324 322 319 314 312 313 317 321 325 329 330 331 333 334 333 332 330 328 325 323 320 317 316 317 317 316 315 315 315 316 319 322 326 331 335 336 338 339 340 340 340 338 335 333 334 337 337 335 332 332 331 329
323 323 323 322 321 320 320 320 320 321 321 319 318 319 322 325 328 330 331 334 336 336 336 334 330 327 327 328 327 326 325 325 325 325 325 323 319 313 309 308 309 312 317 322 324 327 329 329 323 319 318 318 319 320 320 320 321 321 321 321 323 325 326 328 330 331 332 335 337 338 338 336 336 337 335 334 334 335 336 334 331 330 330 329 328
322 323 322 322 321 321 322 322 321 322 323 322 321 322 322 321 322 326 328 329 332 334 335 336 333 330 329 329 327 325 325 326 326 325 324 322 321 317 311 307 306 306 307 309 310 312 316 319 318 318 322 325 328 329 330 331 332 332 332 333 333 333 334 335 335 335 336 336 336 335 334 333 333 333 333 333 332 332 332 330 328 328 328 327 327
322 321 321 320 320 321 322 322 322 322 322 323 323 324 324 321 319 321 323 324 327 330 332 334 334 333 332 330 327 326 326 324 321 318 316 315 314 311 307 305 305 305 305 305 305 305 308 312 317 323 326 327 329 330 331 332 333 333 334 334 334 335 334 334 334 334 334 334 333 332 332 332 332 332 332 331 330 329 328 327 327 328 327 327 328
324 324 323 321 320 320 321 321 321 321 320 321 322 322 321 318 315 315 315 316 318 321 325 328 329 328 327 325 322 321 320 317 316 315 314 314 312 307 304 304 305 305 306 306 304 306 311 316 321 325 326 327 328 328 329 331 331 331 331 331 332 332 331 331 331 332 332 331 331 330 330 330 330 329 329 329 328 327 327 327 326 327 326 327 327
322 323 323 321 320 320 320 320 321 321 321 320 318 317 316 315 315 313 310 308 308 311 315 319 320 320 319 319 318 317 317 316 316 314 312 310 308 306 305 305 305 306 307 307 307 312 320 324 325 326 327 328 328 328 329 329 329 328 329 328 329 329 328 328 328 328 329 329 328 328 328 327 327 327 327 327 326 326 326 326 326 325 325 325 324
321 320 320 321 321 319 318 319 320 321 321 321 320 318 318 320 320 318 315 310 306 305 308 310 311 311 311 312 313 313 312 311 310 309 307 306 306 306 307 307 307 308 310 312 315 321 325 326 326 327 328 328 328 328 329 328 328 327 326 325 325 325 325 325 326 326 326 327 326 326 326 326 326 325 325 325 325 324 324 324 323 323 323 322 321
323 320 317 319 321 320 318 319 321 321 320 321 320 319 320 322 322 321 320 317 311 308 308 308 309 310 311 310 310 309 308 308 307 307 307 307 306 308 308 308 309 313 316 318 321 325 327 326 326 327 326 326 326 326 326 325 325 325 324 323 323 323 323 324 324 324 324 324 324 324 324 323 323 323 323 323 322 321 321 321 320 320 320 319 319
323 321 318 317 321 322 320 319 321 322 321 321 320 320 321 323 323 322 322 320 318 316 315 315 314 315 315 312 310 310 310 310 310 310 310 310 311 314 316 315 316 318 320 320 322 324 324 324 323 323 323 323 323 322 323 323 322 322 321 321 321 321 321 322 322 322 322 322 322 321 321 321 321 321 320 320 319 319 318 318 317 318 318 317 318
322 322 321 319 320 322 321 320 320 321 320 321 321 321 322 324 324 322 321 321 320 320 319 318 317 317 315 313 313 314 315 315 316 316 316 317 318 320 322 323 323 322 322 322 322 322 321 321 321 320 321 321 320 320 320 320 320 320 320 319 319 320 320 320 321 321 320 320 319 319 319 319 318 318 317 317 317 316 315 315 314 314 314 314 315
322 322 323 322 320 320 321 321 321 321 320 320 321 321 322 323 322 321 322 322 321 320 319 318 317 316 315 315 316 317 317 317 318 318 319 319 320 321 322 323 323 323 322 321 321 320 319 319 319 318 319 319 318 319 319 318 318 318 318 318 318 318 318 319 318 318 318 318 317 316 316 316 315 315 314 314 313 312 311 311 311 310 310 310 311
320 321 321 320 320 319 319 319 320 321 321 321 321 320 320 321 320 320 322 323 322 321 320 319 317 315 315 315 316 316 316 316 317 318 319 319 319 320 321 321 320 320 320 319 319 318 318 317 317 317 317 317 316 316 317 316 316 316 316 316 316 316 316 316 315 315 315 314 313 313 313 312 312 311 311 311 309 308 308 308 307 307 307 307 308
318 319 318 316 316 318 319 319 320 319 317 316 318 319 320 320 319 318 319 321 323 322 321 319 318 316 315 315 315 315 315 315 315 316 317 319 319 319 320 320 319 318 318 317 317 317 316 316 315 315 315 315 315 315 315 314 314 314 314 314 314 313 313 313 312 312 312 311 310 310 309 308 308 308 308 307 307 306 306 305 305 305 305 305 306
316 318 318 315 314 317 320 319 318 315 312 310 312 315 318 319 318 317 317 319 321 321 321 320 318 316 315 315 315 315 315 315 314 314 315 317 318 317 318 318 317 316 315 315 315 315 314 314 314 313 313 313 313 313 313 313 312 312 312 312 312 311 311 310 310 310 309 308 307 307 306 306 305 305 305 305 305 304 304 303 303 303 304 304 304
316 317 319 319 317 317 319 318 316 314 314 314 314 315 317 317 317 316 317 318 319 320 320 320 319 317 316 315 315 315 314 314 313 313 314 316 316 315 315 316 315 314 314 313 313 313 312 312 312 312 311 311 311 311 311 311 311 311 311 310 310 310 309 308 308 307 307 306 305 305 304 304 304 303 303 303 303 302 302 302 302 303 303 303 304
317 316 317 320 320 319 318 317 316 316 318 318 318 318 318 317 316 315 316 316 318 319 320 320 319 317 315 314 313 312 312 312 312 312 313 314 314 313 314 314 313 313 312 312 311 311 311 311 310 310 310 310 310 310 310 310 309 309 309 309 308 308 307 306 306 305 305 304 304 303 303 303 302 302 302 302 301 301 301 301 301 302 302 302 302
319 316 316 319 320 319 317 316 316 318 319 318 317 318 318 317 316 316 315 315 317 319 320 320 319 316 313 312 311 311 311 311 312 312 312 312 312 312 312 312 311 311 311 310 310 310 310 310 310 309 309 309 309 309 309 309 308 308 308 307 307 306 305 305 304 304 303 303 302 302 302 301 301 301 301 300 300 299 299 299 299 300 300 301 301
320 319 319 319 320 319 317 314 314 316 318 318 316 316 317 317 316 316 315 315 316 317 318 317 315 313 311 311 311 311 311 312 311 311 310 310 310 310 310 310 310 310 310 309 309 309 309 309 308 308 308 307 307 307 308 307 307 307 306 306 305 305 304 303 303 302 302 301 301 300 300 300 300 299 299 298 297 297 298 298 298 298 299 299 299
321 321 321 320 319 319 318 315 312 312 314 316 316 316 315 315 314 314 315 315 315 316 315 314 312 311 311 311 312 311 311 311 310 310 309 308 308 308 308 308 308 308 308 308 308 308 308 308 307 306 306 306 306 306 306 306 305 305 305 304 304 303 302 302 301 301 300 300 299 299 299 298 297 297 296 296 296 296 296 296 297 297 298 298 298
321 320 320 320 319 318 317 315 313 312 313 315 316 316 314 313 313 314 315 315 314 314 314 313 312 311 310 311 311 311 310 309 309 308 308 307 307 307 306 306 306 306 306 307 307 307 307 306 305 305 305 304 304 304 304 304 304 304 304 303 303 302 301 300 299 299 298 298 298 298 297 296 296 295 295 295 295 296 296 296 296 297 297 297 297
321 320 319 319 319 318 316 314 314 314 315 316 317 316 314 313 313 313 314 314 313 313 314 313 311 310 310 309 309 309 308 308 307 307 306 306 305 305 305 305 305 305 305 304 304 304 304 304 304 303 303 303 303 303 303 302 302 302 302 302 301 300 299 298 298 297 297 297 297 296 296 295 295 295 295 296 296 296 296 296 296 296 297 297 297
319 320 319 318 318 317 316 315 314 313 314 316 317 316 315 313 313 312 313 312 312 312 312 311 310 309 308 308 308 307 307 307 306 306 305 305 304 304 304 303 303 303 303 303 302 302 302 302 302 302 301 301 301 301 301 301 301 301 301 300 299 299 298 297 297 297 297 297 296 295 295 295 296 296 296 297 297 297 297 296 296 297 297 297 297
318 319 319 318 317 317 317 316 315 314 314 315 315 315 314 314 312 312 311 311 310 310 309 309 308 307 307 307 306 306 305 305 305 304 304 303 303 303 302 302 302 302 302 301 301 301 300 301 300 300 300 300 300 300 300 300 299 299 299 298 298 297 297 297 297 296 296 296 295 295 296 296 297 297 297 297 298 297 297 296 296 297 297 298 298
318 319 319 318 317 316 316 316 315 314 314 314 314 313 313 313 312 311 310 310 309 309 308 307 307 306 306 305 305 305 304 304 304 303 303 303 302 302 301 301 301 301 301 300 300 300 300 300 299 299 299 299 299 299 298 298 298 298 297 297 297 296 296 296 296 295 295 295 296 296 297 297 298 298 298 298 298 297 296 296 296 297 298 299 300
318 318 317 317 316 315 315 314 314 314 314 313 312 311 311 311 311 310 309 309 308 308 308 307 306 305 305 304 304 304 303 303 303 303 302 302 301 301 300 300 300 300 300 300 299 299 299 299 299 299 298 298 298 298 298 298 297 297 297 296 296 296 295 295 295 295 295 296 297 297 297 298 298 298 298 298 297 296 295 296 297 298 299 299 300
316 315 315 315 314 313 312 312 312 312 313 312 311 310 309 309 309 309 309 308 308 307 307 306 305 305 304 303 303 303 302 302 302 302 302 301 301 300 299 299 299 299 299 299 298 299 299 298 298 298 298 297 297 297 297 297 297 296 296 296 295 295 295 294 295 295 296 297 297 297 298 298 298 299 299 299 298 296 296 297 298 298 299 299 299
315 313 312 312 312 310 309 309 310 310 310 309 309 308 308 308 308 308 308 307 306 306 305 305 305 304 303 303 302 302 301 301 301 301 300 300 300 299 299 298 298 298 298 298 298 298 298 297 297 297 297 297 297 296 296 296 296 296 295 295 295 294 294 295 295 296 297 297 297 297 298 299 299 300 300 299 298 296 296 297 298 298 299 299 299
Wind_Speed
29 29 28 26 25 23 22 22 21 20 20 20 20 18 17 17 16 15 14 15 15 15 15 14 13 13 12 12 12 11 10 10 10 10 10 11 10 10 9 8 8 8 8 8 8 7 7 7 7 7 7 8 9 9 9 9 9 9 10 11 10 10 11 9 8 10 15 16 15 15 16 18 19 19 19 19 20 20 20 20 20 20 19 18 19
30 30 29 27 26 24 23 22 21 21 20 20 19 17 17 17 16 16 15 15 15 16 15 14 13 13 13 12 12 11 11 11 11 11 10 11 11 10 10 9 9 9 9 9 8 7 8 8 9 8 8 9 10 10 10 10 9 9 9 11 11 9 9 11 9 9 14 16 15 16 16 17 18 18 19 21 23 22 20 19 18 17 18 19 21
30 29 29 28 27 24 23 22 21 20 21 21 20 19 18 18 17 18 17 16 16 16 16 15 14 14 13 13 12 12 12 12 11 11 11 11 12 11 10 10 10 10 10 9 9 8 8 9 10 9 9 10 10 10 11 11 10 10 10 10 11 10 9 10 11 11 13 15 15 16 16 16 17 18 19 21 21 18 16 16 17 18 21 23 25
31 30 29 28 27 25 23 22 22 21 21 22 21 20 19 19 19 20 19 18 18 18 18 16 15 15 15 14 14 13 14 14 13 13 13 12 11 11 11 11 11 11 10 9 9 9 10 11 10 10 11 11 10 11 11 12 11 10 10 10 11 11 10 10 11 12 13 14 15 15 15 16 17 17 18 18 17 15 15 17 19 22 24 26 27
31 30 29 28 27 26 25 24 23 22 22 21 20 20 19 18 18 19 19 19 19 19 19 18 17 17 17 17 16 16 15 15 14 14 13 12 12 12 12 11 12 12 12 11 10 11 11 11 11 11 11 11 10 10 10 11 12 11 10 11 11 10 10 9 10 11 12 12 13 14 15 15 16 15 15 17 17 17 18 19 21 24 26 28 28
32 31 29 29 28 26 25 25 25 23 23 21 19 18 18 17 17 18 18 18 18 19 19 19 19 19 19 18 18 18 16 15 15 15 14 13 12 13 13 13 12 12 12 12 12 12 11 10 9 10 11 11 11 10 10 10 11 11 11 11 10 8 7 7 7 8 8 9 12 15 15 15 14 15 15 16 17 19 22 23 23 24 27 29 30
29 31 31 29 28 27 25 25 25 23 23 22 19 18 19 18 18 19 20 20 20 19 19 20 20 20 20 19 19 20 18 17 16 15 14 13 13 13 14 14 14 12 11 12 13 13 12 11 10 10 11 12 13 11 11 10 10 11 12 12 11 8 7 6 7 8 10 11 13 14 14 14 14 15 15 16 16 18 22 24 25 27 29 30 31
18 23 29 29 26 25 24 24 24 23 22 22 21 20 19 17 16 15 15 17 19 21 21 21 21 22 22 21 20 21 20 18 17 16 15 15 15 15 14 14 14 13 12 14 14 12 12 12 12 11 10 11 12 11 11 11 12 13 13 12 11 9 8 7 8 10 11 12 12 12 13 15 16 16 17 16 16 18 20 20 22 27 30 30 28
13 13 20 24 22 22 21 21 21 21 22 21 21 21 19 16 14 13 11 11 12 15 18 19 21 24 25 23 21 22 21 20 18 18 18 18 17 16 16 15 14 13 12 12 11 11 12 13 12 10 10 10 10 10 10 11 12 14 12 11 11 10 8 9 10 10 11 11 12 13 14 16 17 17 17 15 15 16 18 18 20 24 27 28 25
9 8 12 16 18 19 18 17 16 18 20 20 20 20 19 17 15 13 12 11 9 8 9 11 15 20 24 25 23 22 21 20 19 19 18 18 18 17 17 16 15 14 13 11 9 8 10 10 9 8 8 8 9 10 11 12 13 14 12 11 11 11 10 10 9 9 9 10 12 13 13 15 16 15 15 14 14 15 16 18 21 22 24 24 22
7 6 8 12 15 16 15 14 13 14 16 17 17 18 18 19 17 15 13 13 12 10 8 7 9 12 17 22 22 22 21 20 20 19 18 17 18 18 18 18 17 15 13 11 9 7 5 6 6 6 7 8 8 10 11 12 13 13 12 11 10 10 10 9 8 7 8 9 11 12 12 14 13 12 12 13 14 15 17 18 19 19 19 18 17
9 8 10 12 13 13 13 12 12 13 13 13 14 14 14 16 17 17 14 13 12 12 11 9 9 9 11 16 19 21 21 20 19 19 18 18 18 17 18 19 18 16 14 11 10 8 6 5 5 5 6 8 10 10 11 11 12 12 12 11 10 9 8 8 7 7 7 8 10 11 11 11 11 11 12 14 15 16 18 19 17 16 16 15 16
12 11 11 11 9 9 11 12 13 13 13 12 12 12 11 10 11 12 12 11 11 11 10 9 9 9 10 12 15 17 19 19 19 18 18 18 18 17 16 18 20 18 16 14 13 10 9 7 6 6 7 9 10 10 10 11 11 11 11 11 10 8 8 8 7 7 7 7 9 10 9 8 10 12 13 15 17 18 19 19 17 16 16 16 17
9 8 9 8 6 7 10 12 12 13 13 13 13 13 12 11 10 10 10 10 10 9 8 8 8 9 10 11 12 14 16 18 18 16 15 15 15 15 14 16 18 18 16 15 14 12 11 9 8 9 10 10 11 11 11 11 10 9 9 8 8 7 7 7 6 6 6 6 7 6 5 7 10 13 15 15 17 17 18 18 17 16 16 14 14
7 5 8 9 8 8 11 13 13 12 13 13 12 12 12 12 11 12 12 12 11 10 8 8 8 10 11 12 12 14 14 15 14 13 13 12 11 13 14 15 16 16 15 14 12 11 10 10 10 10 11 11 12 12 11 10 9 8 8 7 6 6 6 6 6 5 5 5 5 4 5 7 11 14 15 14 14 15 15 15 15 12 11 11 12
10 8 9 10 10 9 10 12 12 12 13 13 12 11 10 10 10 11 12 13 13 12 11 10 10 11 12 13 13 13 13 12 11 12 12 12 11 13 15 16 16 15 15 13 11 10 9 10 11 11 10 11 11 11 10 9 8 8 8 8 7 6 6 5 6 6 6 6 5 4 5 8 11 12 12 13 14 13 11 9 7 7 7 10 12
12 12 11 10 9 9 8 9 9 10 10 10 9 8 8 10 11 11 12 13 15 15 14 13 11 11 12 15 16 16 15 15 17 18 16 14 13 14 15 16 16 15 13 11 9 9 8 9 9 9 9 9 9 9 8 7 7 7 8 8 8 7 6 6 5 5 5 5 5 6 7 9 9 8 9 10 9 6 5 8 10 9 9 9 10
11 11 10 8 8 7 6 6 6 6 6 6 6 6 6 8 9 11 11 12 13 12 12 11 12 15 17 19 19 20 19 20 23 25 22 19 17 16 15 15 15 14 13 11 9 8 7 7 7 6 6 6 6 6 5 5 6 6 7 8 8 8 8 7 6 6 6 6 7 8 9 8 6 6 6 6 8 8 10 11 10 9 11 10 9
12 11 10 8 7 6 6 6 6 6 6 5 4 4 4 4 5 6 7 7 8 8 8 10 14 19 21 19 17 17 17 17 19 22 22 22 20 18 16 15 14 14 13 12 10 8 6 5 6 6 5 5 5 6 6 6 6 7 8 8 9 8 7 7 7 7 7 7 8 9 8 5 4 5 4 6 9 10 11 10 9 9 11 12 12
12 11 10 9 8 7 7 7 6 6 5 5 6 6 4 4 3 1 0 2 4 4 5 9 12 13 13 12 11 11 11 10 12 14 18 20 20 19 19 18 17 15 14 12 11 9 7 6 7 7 6 6 6 7 8 9 8 8 8 8 7 7 7 7 7 7 7 8 8 8 4 2 4 5 4 5 9 10 9 8 8 9 11 12 14
12 11 11 10 10 9 9 9 8 8 7 8 9 9 8 6 6 5 5 4 3 4 5 7 8 7 5 5 5 4 3 3 4 6 11 15 16 17 19 19 19 17 15 13 11 9 8 7 8 8 7 7 7 8 9 10 10 9 8 7 7 8 8 8 8 8 8 8 7 3 1 4 5 5 5 6 9 9 8 8 9 11 12 13 15
10 11 10 10 11 11 10 10 10 10 9 9 10 10 8 8 7 7 9 11 12 12 11 10 10 10 9 9 9 9 8 6 5 4 4 7 9 9 9 11 14 16 15 13 12 11 10 9 8 7 6 7 8 9 9 10 11 11 10 9 9 10 10 10 10 10 9 7 3 1 3 5 6 6 6 7 8 9 8 8 9 9 11 13 14
10 10 10 10 10 10 10 10 10 10 9 8 8 8 7 7 7 8 10 13 15 16 15 14 14 14 14 14 14 13 11 9 8 8 8 7 7 8 6 5 7 11 12 13 14 14 13 11 9 7 5 6 8 9 10 11 13 13 12 11 12 12 12 12 11 9 6 3 2 2 3 5 6 6 6 7 8 8 6 6 6 7 9 11 11
11 10 10 9 8 7 7 7 8 9 8 7 7 8 7 7 8 9 9 12 14 16 16 17 16 16 16 15 14 13 11 10 10 10 11 11 12 10 8 6 6 7 9 10 11 12 11 9 6 5 5 6 9 11 13 14 15 15 14 14 14 13 12 10 8 5 3 3 2 1 4 3 4 5 6 7 8 7 5 4 5 7 8 9 9
10 10 10 9 9 8 8 7 7 7 7 6 7 8 8 9 10 10 10 11 12 13 14 15 16 16 15 13 11 10 10 9 9 9 10 11 12 11 7 5 4 3 4 5 5 6 6 5 3 3 6 9 12 14 15 15 14 13 13 12 11 9 8 7 6 4 3 2 3 5 5 3 3 4 6 7 7 6 4 4 5 6 7 8 9
7 7 7 7 8 8 8 8 8 7 6 6 7 8 8 8 10 11 11 11 12 13 13 13 14 15 14 11 9 8 8 8 7 7 8 9 9 10 8 6 4 2 1 1 1 2 4 3 2 4 6 7 9 11 10 9 8 7 7 7 6 6 5 5 4 4 4 3 3 5 6 6 6 6 6 6 6 6 5 5 7 9 9 9 9
7 6 6 5 5 4 4 3 3 2 3 5 6 7 7 7 8 10 10 10 10 11 12 13 14 14 13 11 9 7 6 4 4 5 6 8 9 10 11 9 6 4 3 2 0 2 3 2 0 3 3 2 1 1 2 1 1 0 1 1 1 2 4 5 7 6 6 6 8 9 9 7 7 7 7 7 9 10 9 9 10 11 10 10 10
6 6 5 4 4 4 4 4 4 3 3 4 6 7 7 7 7 8 8 8 8 8 9 10 12 13 11 9 7 5 3 0 3 5 7 8 9 10 11 10 9 7 6 4 3 2 1 3 3 3 6 10 11 12 12 12 13 13 13 12 12 13 14 13 13 13 12 11 11 10 9 8 8 9 9 9 10 11 10 9 10 11 11 12 12
3 4 3 3 6 7 7 7 6 5 5 6 6 6 6 5 5 5 5 5 6 6 6 7 7 7 6 5 3 2 0 3 5 7 7 8 10 10 10 10 9 8 8 6 4 4 4 5 6 7 9 12 15 17 19 19 19 19 18 17 17 16 16 15 15 14 13 12 12 12 12 11 11 11 10 10 11 12 11 10 10 10 10 12 14
5 7 7 7 8 8 7 8 7 6 6 6 5 6 6 5 5 4 4 3 3 3 4 5 5 4 2 1 1 2 3 4 6 7 8 8 9 9 9 9 7 7 7 6 4 4 6 9 11 11 12 13 14 17 18 19 20 19 18 18 17 16 15 15 15 14 13 13 13 13 12 12 12 12 11 11 12 12 11 11 11 12 13 14 16
4 7 8 8 7 5 5 6 6 5 4 4 4 5 5 5 4 5 5 5 4 3 2 3 2 2 1 1 2 2 3 4 6 7 7 7 7 7 7 7 6 6 6 6 6 8 9 12 13 13 14 15 16 17 18 19 19 19 19 18 18 16 15 15 14 12 12 12 13 13 13 13 13 13 13 13 13 13 13 13 13 14 15 16 17
1 4 5 5 4 3 3 4 5 5 5 4 2 1 2 2 3 3 4 5 5 5 5 5 5 4 4 3 2 2 3 4 4 4 5 5 5 5 6 6 5 6 7 8 10 12 13 14 15 16 17 19 19 18 19 19 19 18 18 18 18 17 16 16 14 13 14 14 14 14 15 15 15 16 16 15 15 16 16 17 17 17 17 18 18
2 4 4 4 4 4 3 4 5 5 4 4 3 1 1 3 4 4 3 3 4 6 8 8 8 7 5 5 4 5 6 6 6 6 6 6 7 8 7 5 5 6 8 10 12 15 16 18 19 19 20 20 19 19 19 19 19 18 18 18 18 18 16 15 13 13 14 15 15 15 15 15 15 15 16 16 16 17 18 19 19 18 18 19 19
3 6 5 5 5 5 4 4 5 5 4 4 3 2 1 3 4 4 4 4 5 6 7 7 7 7 7 7 8 8 9 9 9 9 9 9 10 11 9 7 7 8 10 12 15 17 18 19 19 19 19 19 18 18 18 17 17 17 17 17 17 16 15 13 13 14 15 14 15 16 16 15 15 16 16 16 16 17 18 19 19 19 19 19 18
5 5 6 5 6 6 5 4 5 5 5 5 4 3 3 3 2 4 5 6 7 8 7 6 6 7 8 8 9 10 11 11 12 12 11 11 11 12 13 15 15 14 15 16 18 18 18 19 19 18 18 18 17 17 16 16 16 16 16 15 15 14 13 14 14 14 14 14 15 16 16 16 16 16 16 17 17 18 19 19 19 19 19 18 16
8 7 7 7 7 7 7 6 6 5 5 5 5 5 4 2 1 0 1 4 7 9 9 7 7 8 8 9 9 10 11 12 13 13 12 11 11 12 14 17 18 18 18 18 17 17 17 17 17 17 17 17 17 16 16 16 16 15 14 14 14 14 14 14 14 14 14 15 16 16 15 16 16 16 16 17 18 18 18 18 18 18 17 17 16
10 9 8 9 9 9 8 8 7 7 7 7 7 7 6 3 2 1 3 3 6 9 11 10 9 9 8 8 8 8 8 9 11 11 9 9 9 10 12 14 15 17 18 17 16 16 16 16 15 15 15 15 14 14 14 14 14 13 13 13 14 14 14 14 14 14 14 14 15 15 16 16 17 17 17 17 18 18 17 18 18 18 18 17 17
12 11 9 9 10 10 9 9 8 7 6 5 7 8 7 5 3 3 3 4 6 10 12 11 11 10 9 7 6 5 4 5 8 9 7 6 7 9 10 12 14 16 17 16 15 15 15 15 14 13 13 13 13 12 12 12 12 11 12 12 12 13 13 13 13 13 13 14 15 15 16 16 16 17 17 16 16 17 17 17 17 17 17 17 16
13 13 12 12 12 12 11 10 8 6 4 4 6 7 7 5 4 4 4 3 5 9 11 12 12 12 9 7 5 3 3 5 7 6 5 6 8 10 11 13 14 16 16 15 14 14 15 14 13 12 12 12 11 11 11 10 10 9 9 9 10 11 11 11 12 12 12 13 14 14 15 16 16 16 16 15 15 16 16 16 16 16 16 15 14
15 15 15 15 15 15 14 11 10 8 7 6 7 7 8 8 7 6 5 4 5 8 11 12 14 13 10 6 3 2 2 2 3 4 5 7 10 11 12 13 14 14 14 14 14 13 13 12 11 11 10 10 10 9 9 8 8 8 8 8 9 10 10 11 11 12 12 13 14 14 15 16 16 16 17 16 15 16 17 17 16 15 15 15 15
17 18 18 17 17 18 16 14 13 12 11 10 9 9 9 10 9 7 6 5 7 10 12 13 14 13 8 5 4 4 5 6 6 7 9 10 11 12 12 12 12 12 12 12 11 11 10 9 9 8 8 8 7 7 6 7 7 7 7 8 8 9 9 10 10 11 12 13 14 15 15 16 16 17 17 17 17 17 17 17 16 15 15 15 16
18 20 20 20 19 19 18 17 16 15 14 13 13 12 11 11 11 10 8 7 9 13 15 15 14 11 8 7 7 8 9 9 9 9 10 10 10 11 11 11 10 10 10 10 9 8 8 8 8 7 6 6 6 5 5 5 5 5 5 6 6 7 8 9 10 11 12 13 14 15 16 16 17 18 18 18 17 16 16 16 15 15 15 16 16
16 16 18 19 20 21 21 21 20 18 17 16 15 13 13 12 11 10 9 9 12 15 16 15 13 11 9 9 10 10 11 11 10 9 9 9 9 9 9 9 8 8 7 7 7 6 5 6 6 6 6 6 5 5 5 4 4 4 4 5 5 6 7 8 10 11 13 14 15 16 17 18 18 19 18 17 15 14 14 14 14 14 14 15 15
17 16 15 16 18 21 21 20 18 17 17 18 17 15 13 12 11 10 10 11 13 14 15 15 13 12 11 11 11 12 12 11 10 10 9 9 9 8 8 7 6 5 5 4 4 3 3 4 5 5 5 5 5 5 4 4 4 4 4 5 6 7 8 9 11 13 14 16 17 18 19 19 19 18 17 15 14 14 14 14 13 13 14 14 14
16 17 16 16 17 19 19 16 14 13 15 16 18 18 15 13 12 11 11 12 14 15 16 15 14 13 13 13 13 13 12 11 11 10 9 8 8 8 7 6 5 4 4 4 3 3 4 4 4 4 5 5 5 5 5 4 5 5 5 6 7 8 9 11 12 14 15 17 18 19 19 19 18 17 16 15 14 14 14 13 13 13 13 14 14
14 16 17 18 19 19 18 18 17 16 16 17 18 19 16 13 12 13 13 15 17 17 18 17 15 14 14 14 13 13 13 12 11 10 8 7 6 6 5 5 5 5 5 4 4 4 4 3 3 4 5 5 5 4 4 4 5 5 6 7 8 9 10 11 13 15 16 18 19 19 18 18 17 16 15 14 14 14 14 14 13 13 13 14 15
13 15 17 18 19 20 19 18 18 17 14 14 16 18 18 16 14 13 16 18 19 19 19 18 16 14 14 14 14 14 13 12 11 9 8 7 6 5 4 4 4 4 3 3 4 4 3 3 3 4 4 3 3 4 4 5 5 6 6 7 8 9 11 12 14 16 17 18 18 18 17 17 16 15 14 14 14 14 13 13 12 12 13 13 13
14 15 16 17 18 19 19 18 17 16 14 12 12 14 16 17 17 16 18 20 19 18 17 16 14 14 14 14 13 13 12 10 9 8 7 6 4 4 4 3 3 2 2 2 2 2 2 2 3 3 3 2 3 4 4 4 5 6 7 9 10 11 12 14 15 17 17 17 17 16 16 16 16 15 14 15 13 12 11 11 10 10 11 10 11
14 15 15 15 15 16 16 17 16 15 14 14 13 10 10 13 16 18 19 18 17 16 15 14 14 14 13 13 12 11 10 9 8 7 6 5 4 3 3 3 3 2 2 2 2 1 1 2 2 2 2 3 4 4 4 5 6 8 9 10 11 13 15 16 16 17 17 16 16 16 16 16 15 13 13 12 10 9 8 8 8 8 9 9 9
9 9 9 11 13 11 10 12 13 12 13 14 14 11 9 10 12 13 14 14 15 15 15 15 15 14 12 12 12 10 9 8 7 6 5 4 3 4 3 3 3 2 2 1 1 1 1 1 1 1 1 3 4 4 4 5 6 8 10 11 13 15 16 17 17 17 16 15 15 15 14 13 11 9 9 9 8 7 6 7 7 7 7 7 8
8 6 6 8 10 10 8 8 10 10 11 12 13 12 11 10 10 11 13 15 16 16 16 15 14 13 12 12 11 10 9 8 7 6 6 5 4 4 4 4 4 3 2 2 1 1 2 3 4 4 3 3 4 4 4 6 8 10 11 13 15 16 16 16 16 16 14 14 14 13 11 9 8 7 8 8 8 6 5 6 6 6 6 8 9
Wind_Direction
196 198 201 203 204 206 206 207 208 207 204 204 207 211 214 216 217 213 212 217 217 214 215 220 222 223 223 225 227 233 237 236 236 243 248 248 250 253 248 250 262 268 272 272 264 264 274 286 287 277 278 284 283 283 287 293 294 288 284 283 280 279 279 269 256 280 302 314 323 331 340 343 343 346 348 347 347 345 342 343 346 350 354 357 359
197 200 201 203 206 208 208 207 207 207 206 207 211 213 215 216 216 214 217 219 217 215 217 222 226 226 226 229 230 233 237 239 239 241 246 249 249 251 249 252 260 267 272 273 268 262 265 272 273 271 277 283 281 279 284 287 283 282 281 277 280 285 280 273 264 272 293 307 321 330 338 342 340 341 344 344 345 346 348 353 358 2 3 358 355
197 200 201 203 206 209 209 208 209 210 209 209 212 215 216 215 214 217 222 225 223 221 221 223 224 222 222 225 228 231 236 241 242 242 243 246 248 251 252 251 257 267 274 275 272 265 264 272 273 270 272 280 285 283 285 286 276 272 279 279 280 286 284 278 271 267 278 295 313 325 335 341 337 334 340 344 349 356 1 2 359 356 354 351 349
196 199 203 205 206 208 209 208 209 212 212 211 215 220 221 218 217 220 225 229 231 230 227 225 222 219 219 222 225 230 237 240 242 243 242 244 248 251 254 254 256 263 271 276 275 270 270 273 272 269 270 277 290 293 290 288 279 272 278 281 280 282 282 281 280 275 275 286 306 322 333 338 333 334 345 351 355 360 359 352 348 347 348 349 349
195 198 202 204 205 207 209 209 209 211 213 215 219 223 223 221 222 223 227 232 234 232 229 225 223 222 223 226 226 228 234 238 239 239 239 243 248 251 255 258 257 260 264 267 269 268 271 277 275 272 271 272 280 286 290 291 284 276 280 282 281 284 283 280 283 283 279 286 306 321 329 332 333 339 354 357 351 347 344 340 340 344 346 347 350
196 198 201 202 204 208 210 210 209 211 214 216 220 221 219 222 229 230 230 233 232 229 229 228 225 224 226 228 227 227 229 231 230 233 236 240 245 251 256 258 258 259 260 260 262 262 264 271 276 279 276 269 268 274 281 285 278 272 278 280 276 279 278 267 271 283 288 298 312 319 325 332 336 341 352 356 348 344 343 338 337 343 346 346 349
195 198 199 200 202 206 208 208 209 212 214 215 216 217 219 226 234 235 234 233 230 228 232 231 227 226 226 226 226 227 227 225 224 228 234 236 242 250 256 258 256 254 255 259 261 261 262 262 267 278 278 268 266 269 270 271 270 270 275 275 268 263 257 249 260 279 291 304 313 318 324 328 330 331 337 341 339 342 347 343 339 342 345 344 346
192 199 198 196 199 201 201 205 209 212 213 214 216 219 222 226 230 229 227 228 229 232 236 235 230 229 228 227 228 229 227 225 225 229 233 234 239 246 251 256 255 249 252 260 263 265 267 265 265 273 277 269 268 269 263 260 266 273 274 264 249 239 240 253 272 285 293 303 310 313 316 317 319 323 327 333 337 339 344 344 338 338 339 340 345
179 192 190 189 192 195 196 202 207 210 211 214 218 223 227 228 225 223 223 224 228 232 237 239 236 232 229 229 230 228 225 224 226 230 233 233 235 240 245 250 251 245 245 255 264 267 266 264 265 271 278 276 274 274 268 263 268 274 272 254 237 237 253 272 282 289 296 302 305 308 310 311 317 324 326 331 336 335 336 337 334 335 336 338 348
130 135 158 170 179 185 190 196 202 209 212 214 219 224 228 229 227 231 235 238 240 237 235 233 231 231 231 229 228 225 223 225 228 232 234 234 236 239 241 246 249 246 243 249 258 259 257 256 256 265 276 277 275 274 271 268 268 270 266 255 251 259 272 277 281 288 294 299 303 306 306 309 319 328 328 330 334 331 331 333 332 334 337 339 348
105 119 153 167 176 181 186 190 195 203 208 213 218 221 224 226 229 235 237 241 247 250 250 240 223 223 227 227 226 225 224 226 230 235 238 239 239 240 241 244 247 242 238 240 244 242 244 244 245 260 272 273 272 270 266 265 261 256 251 249 256 264 268 268 274 284 292 297 303 304 303 307 321 334 334 333 333 328 328 330 331 333 338 338 337
166 181 187 184 184 191 199 203 205 205 203 204 205 206 208 215 224 231 235 238 243 245 250 254 243 229 223 221 222 221 222 226 230 235 240 240 241 244 245 244 240 232 227 228 229 227 226 228 241 260 263 265 269 269 267 266 258 250 248 247 248 255 263 270 278 285 289 295 301 305 307 310 323 335 334 330 327 324 324 327 330 331 333 332 327
172 192 201 197 196 204 213 222 227 224 217 210 207 205 206 209 216 224 227 231 235 239 245 252 251 242 228 219 217 218 221 226 229 231 237 241 244 249 248 239 233 230 228 225 221 221 226 233 248 261 262 268 273 270 269 267 258 252 252 248 247 254 262 269 278 285 290 295 300 308 315 319 324 327 327 325 322 321 322 324 328 329 327 330 332
159 191 214 216 216 214 217 225 230 229 222 218 218 218 220 224 227 229 231 234 238 243 248 252 252 243 232 224 222 221 220 222 224 225 230 238 244 246 239 228 226 226 221 216 216 223 231 240 253 262 264 271 275 269 264 260 255 253 249 245 248 252 255 260 265 276 288 293 299 306 315 321 318 316 320 321 320 322 322 320 322 323 323 332 340
151 191 223 226 224 216 215 219 222 220 214 211 214 217 220 227 233 236 240 246 251 255 254 250 247 239 231 226 225 224 221 219 221 224 227 230 230 228 222 214 212 209 205 208 218 226 235 247 257 261 263 264 265 263 256 248 247 248 244 239 237 240 255 260 251 252 265 271 278 289 305 315 311 312 319 323 323 323 318 314 318 322 328 341 346
149 171 198 211 214 209 207 211 212 213 213 214 219 222 226 237 245 246 249 254 259 262 258 252 246 238 231 231 236 236 227 224 232 236 233 228 222 220 218 211 206 206 207 214 225 231 241 253 256 255 255 253 251 250 244 241 242 241 238 236 239 247 259 256 243 247 254 255 259 275 298 307 307 313 325 328 325 320 316 328 355 5 1 359 353
137 151 165 184 198 197 197 200 203 210 218 224 232 233 230 238 247 251 254 257 257 256 254 249 246 242 240 245 254 252 238 238 251 251 242 235 228 222 219 213 208 208 209 213 223 232 239 244 246 246 243 242 242 240 236 237 239 241 245 249 253 256 252 242 237 237 239 245 255 275 293 298 300 317 334 341 345 351 22 46 48 37 22 14 356
125 133 139 153 167 174 180 183 185 197 210 218 229 233 229 235 245 250 252 255 256 257 255 248 245 248 251 253 256 252 241 241 249 249 244 240 231 220 216 214 209 206 205 206 214 224 224 221 225 230 226 226 232 234 240 247 251 259 265 266 265 260 249 243 242 239 243 253 258 272 287 289 300 330 355 25 43 49 51 50 47 40 40 39 15
115 118 122 129 137 146 154 159 163 170 179 185 188 194 204 217 238 250 256 264 268 264 252 243 245 250 252 251 249 245 240 238 239 240 237 234 227 215 210 212 210 206 202 200 201 204 203 198 202 210 214 219 230 246 262 268 268 268 267 268 267 261 253 251 257 263 267 269 275 285 290 294 335 7 37 54 43 38 40 44 47 50 53 50 37
111 116 121 124 125 124 120 118 122 126 135 139 124 111 120 139 151 156 178 278 274 261 230 225 230 234 234 230 225 227 230 226 224 225 222 219 216 209 205 206 205 201 197 194 191 187 187 191 199 206 212 218 231 248 259 263 265 261 255 256 257 252 249 254 265 276 284 293 301 302 301 347 26 46 64 42 33 37 46 53 52 48 48 45 37
111 117 120 120 117 111 101 93 86 85 95 108 104 96 97 112 126 129 122 122 121 113 138 177 188 175 163 165 164 159 163 178 192 200 199 198 198 199 199 199 195 188 184 183 182 176 175 186 194 199 205 215 228 238 244 249 252 246 239 242 249 253 259 264 271 283 292 300 305 299 58 41 42 60 57 39 41 47 54 60 51 41 39 34 26
115 118 117 114 109 103 95 91 88 88 93 104 104 94 91 103 120 130 126 119 112 109 117 134 138 125 113 109 107 102 93 86 77 80 137 169 169 168 177 183 182 179 173 165 161 161 168 182 193 199 209 226 236 238 241 246 248 247 247 252 260 266 269 271 278 286 291 292 278 150 76 43 51 61 48 42 48 46 49 58 50 37 33 27 21
115 120 121 118 111 105 97 92 92 93 94 100 101 93 89 95 102 111 121 123 118 115 119 123 122 118 114 109 107 106 105 102 90 73 66 69 79 86 90 107 142 162 160 148 145 153 166 179 190 200 215 237 248 251 253 254 256 257 260 265 269 273 275 278 282 285 281 255 183 129 51 49 69 70 53 44 39 35 44 60 50 36 29 21 19
110 116 121 121 118 115 109 97 91 91 91 93 95 92 89 92 95 100 117 128 127 123 122 121 120 121 120 116 113 113 114 115 109 90 71 63 63 65 68 75 99 134 142 134 135 146 160 173 187 205 236 258 266 268 265 263 264 266 268 270 273 273 274 277 277 268 237 194 178 5 13 49 85 82 68 50 32 25 33 46 36 26 21 15 15
115 115 114 115 117 114 107 96 87 87 91 94 95 94 95 97 99 104 115 126 134 136 134 130 128 128 127 125 124 125 124 120 109 87 69 65 65 64 65 70 78 109 130 126 132 146 160 178 200 249 275 274 273 272 271 270 269 268 267 267 267 267 269 275 282 281 270 271 319 346 5 47 79 79 70 51 29 20 23 31 30 26 22 18 21
131 123 115 117 120 116 105 94 86 81 80 86 92 93 93 93 95 100 110 119 129 139 144 143 140 139 141 142 142 141 137 127 108 78 56 50 50 48 45 49 58 69 92 113 187 214 218 223 253 302 300 286 276 271 271 270 266 265 268 268 269 275 283 297 318 324 318 333 17 42 61 76 83 82 72 49 35 39 47 48 40 36 34 32 34
147 141 132 128 128 130 125 120 122 104 83 90 96 92 85 85 87 89 97 108 118 129 139 146 149 153 160 163 156 149 144 127 91 57 37 25 21 18 12 9 14 29 47 63 81 247 232 209 12 0 5 25 356 273 260 246 211 146 40 39 67 74 78 77 72 71 75 79 83 84 83 83 83 78 69 62 61 63 61 53 44 38 36 33 32
145 142 134 123 125 137 149 163 181 181 135 117 115 104 88 78 76 79 85 94 103 113 125 139 150 159 164 164 159 158 164 138 10 12 12 5 1 2 0 354 352 1 16 35 49 47 94 128 107 63 75 89 93 94 97 101 103 99 96 96 98 99 98 94 90 89 90 91 90 85 77 74 73 68 67 66 63 56 47 42 41 37 32 31 32
169 166 150 126 127 128 130 137 145 139 127 128 131 124 106 84 74 77 86 95 102 109 117 125 136 146 154 164 173 180 312 341 346 354 357 350 343 344 350 349 347 353 4 15 33 52 66 86 94 89 91 94 93 92 95 99 99 97 95 95 96 96 94 90 86 85 84 83 79 72 66 63 59 55 52 48 44 41 37 37 40 38 36 42 46
146 153 144 134 131 124 119 125 132 130 123 121 123 123 114 98 88 86 87 95 106 117 131 137 137 137 143 243 281 330 348 339 336 338 337 332 331 332 336 338 341 354 7 17 48 78 77 78 83 89 92 91 89 90 93 96 94 91 89 88 87 87 84 80 78 78 77 75 70 63 59 56 53 48 47 45 45 46 45 45 46 45 43 46 46
134 149 150 147 144 134 125 130 137 138 134 125 119 120 113 101 93 85 79 81 89 101 125 136 127 110 75 0 329 331 328 317 313 314 312 314 325 335 334 333 347 13 28 45 65 70 69 73 77 84 89 89 87 89 93 93 91 88 85 82 80 78 77 74 72 72 71 69 66 61 56 55 53 51 52 54 54 51 47 43 42 40 39 39 37
189 171 161 156 158 151 142 144 143 142 147 148 143 152 147 134 130 107 84 79 85 95 102 101 86 76 70 51 14 352 349 341 333 329 325 329 348 3 0 354 13 43 58 65 63 61 67 75 79 83 88 88 87 88 88 87 85 84 81 78 75 73 73 72 70 69 68 66 64 61 59 57 56 55 56 56 53 48 44 40 37 35 33 31 29
239 200 182 170 168 160 156 168 162 155 161 164 152 166 228 185 172 159 135 113 102 97 99 99 92 83 75 70 64 59 54 49 43 37 33 33 39 40 31 20 35 58 63 65 67 72 79 83 83 84 86 85 84 85 83 81 79 77 75 74 73 71 71 71 69 67 66 65 63 61 59 57 57 56 57 55 51 47 44 41 38 36 32 29 27
213 197 197 203 196 182 176 186 182 176 184 186 174 155 155 175 193 205 197 177 156 135 118 108 98 89 86 88 86 78 69 64 56 50 51 54 55 56 59 64 70 73 75 79 83 86 87 86 84 85 86 86 85 85 82 78 77 76 75 74 73 71 67 64 61 61 61 60 59 57 56 55 54 53 51 50 47 44 42 39 35 33 31 28 26
227 211 212 219 216 209 210 211 204 198 200 203 199 179 152 158 219 246 239 219 195 169 150 131 114 107 103 99 93 84 75 67 59 54 55 57 58 68 79 82 81 85 89 91 91 90 88 86 85 85 85 85 84 83 81 77 75 75 74 72 70 67 63 59 59 60 60 57 56 55 52 51 50 48 45 44 42 39 36 32 29 27 25 22 19
251 245 241 236 232 233 232 229 226 225 224 223 224 212 191 185 212 163 207 223 211 190 172 155 136 127 120 110 101 90 79 67 57 54 56 54 53 67 81 81 82 90 94 93 92 90 86 84 84 83 82 83 81 80 80 77 74 73 71 70 69 67 65 63 62 61 59 57 55 51 47 45 42 38 36 36 34 33 29 23 18 16 13 11 8
259 257 255 246 240 238 237 239 246 255 255 249 239 224 209 207 218 156 128 150 183 188 184 175 157 143 134 124 113 101 86 64 44 38 44 46 45 62 82 87 89 95 96 92 92 91 86 83 81 79 78 77 76 76 76 74 72 70 69 68 68 67 66 65 62 58 56 54 49 44 40 39 34 29 27 25 22 20 17 12 8 5 3 1 359
261 257 253 245 238 234 238 247 255 258 253 244 228 217 210 213 232 226 180 155 171 186 190 185 170 155 147 141 133 114 76 24 12 19 36 53 57 71 91 98 98 98 96 93 92 91 88 84 81 78 76 74 72 71 69 67 65 63 63 66 68 66 64 60 56 52 49 45 41 36 31 30 27 24 23 20 16 13 10 7 4 1 359 359 359
260 255 251 247 242 239 244 250 246 228 211 201 199 202 209 221 231 220 201 181 175 184 190 189 178 164 154 147 138 106 23 352 356 14 44 70 79 88 99 103 101 100 97 95 92 89 86 83 79 76 73 70 67 65 63 59 55 52 52 55 57 57 55 51 47 45 40 35 31 26 22 21 19 17 15 15 13 8 4 2 2 360 357 356 354
258 253 249 248 244 240 244 245 233 216 210 210 209 212 224 236 234 214 196 180 161 166 178 182 175 165 154 140 124 100 66 55 59 65 80 93 98 102 103 102 101 100 96 94 91 86 83 80 74 70 66 62 61 60 55 49 47 45 44 46 49 51 51 48 43 39 32 26 21 17 14 12 8 4 4 5 2 357 354 352 352 350 348 345 342
255 251 249 248 242 238 240 241 234 228 228 231 236 237 235 229 218 201 193 185 166 161 165 166 162 157 149 133 116 108 110 118 118 109 104 103 103 102 100 100 101 99 96 94 90 85 81 75 67 62 58 54 52 50 42 36 37 38 39 42 45 46 45 42 36 29 23 18 14 10 8 5 359 355 354 352 348 345 345 344 341 339 338 335 333
254 250 248 245 239 234 235 236 238 236 233 234 239 237 225 214 207 203 202 192 171 163 159 155 152 150 146 139 133 125 122 126 125 116 109 105 102 100 100 100 100 98 96 93 88 83 78 71 62 56 49 43 39 34 29 30 33 35 39 41 40 41 41 35 28 21 15 12 9 5 0 356 352 348 345 343 342 341 340 338 337 335 333 332 332
254 254 253 248 244 241 240 241 243 239 231 230 234 229 214 204 203 202 196 183 170 165 161 155 149 144 138 137 140 139 134 132 129 121 113 110 108 105 102 101 100 99 99 95 89 81 69 59 54 47 37 31 30 27 29 37 40 40 46 49 45 43 38 27 19 14 9 5 1 356 351 347 345 342 342 342 342 340 336 334 333 333 332 332 332
255 256 256 253 250 248 247 250 254 249 239 233 231 224 213 205 202 200 191 179 172 168 164 157 148 140 135 136 139 140 137 132 128 123 117 112 109 106 103 101 100 97 95 90 80 63 39 30 33 31 24 22 28 36 46 54 52 47 48 48 42 36 28 18 12 8 3 358 353 348 345 343 342 341 342 344 341 336 334 333 332 332 331 330 329
268 261 255 250 249 247 245 246 251 262 270 261 241 226 218 210 202 195 186 175 167 164 161 155 145 139 137 138 139 139 136 132 128 123 116 110 105 100 96 92 83 72 64 52 30 10 357 352 357 9 13 13 21 33 44 48 46 43 37 28 23 20 17 12 6 1 355 349 345 342 341 340 340 341 342 343 339 335 334 334 332 330 328 327 327
281 270 260 253 250 249 249 244 236 243 268 272 249 226 215 207 198 189 179 169 162 156 154 150 146 142 142 142 142 142 139 136 133 127 121 116 108 98 89 77 63 51 42 32 21 13 7 0 2 14 14 6 8 25 39 38 34 30 20 14 13 12 7 2 356 350 345 340 338 338 338 337 338 340 341 340 337 334 333 332 331 329 327 326 325
280 273 263 254 246 243 244 242 231 227 242 255 241 220 207 202 198 187 174 166 159 152 149 148 146 145 145 145 145 143 140 138 137 132 127 121 108 93 78 60 49 44 40 38 37 35 34 35 35 36 32 12 6 24 37 31 24 20 16 12 9 3 358 353 347 341 337 334 333 335 336 335 336 338 337 335 334 332 330 329 330 331 330 329 327
273 268 263 255 247 241 238 234 226 221 222 227 229 222 214 209 201 186 172 165 160 155 153 151 150 148 147 145 145 144 143 142 142 137 132 124 106 85 70 58 58 69 76 72 71 67 66 70 66 61 59 39 22 25 28 23 22 20 12 7 3 357 352 347 341 335 333 333 334 335 335 334 334 334 332 332 332 331 328 327 329 332 332 328 325
268 266 259 247 239 235 232 227 223 219 212 207 209 213 207 197 187 177 170 168 168 167 167 164 159 154 150 146 147 150 151 152 150 145 141 131 108 89 85 87 99 118 125 122 126 134 121 104 91 71 49 27 20 21 20 18 18 13 5 1 359 354 349 344 338 334 334 334 334 334 333 331 331 330 329 332 336 337 330 323 323 326 326 323 322
255 253 246 231 220 215 213 211 211 210 204 195 189 181 168 166 171 174 176 176 173 171 169 166 161 159 158 157 157 159 158 157 156 156 159 154 131 112 107 104 101 106 115 123 151 205 247 277 303 344 3 3 4 8 8 5 4 1 358 357 354 348 343 338 334 333 333 332 332 333 332 331 332 336 341 348 355 353 337 323 320 322 321 319 318
228 222 219 213 205 195 181 173 174 175 172 167 163 158 154 156 168 180 184 180 172 167 165 163 162 162 162 160 159 157 153 150 151 157 164 165 155 139 127 111 99 95 93 87 64 335 314 311 312 315 323 332 337 344 353 356 353 349 347 346 342 337 335 333 331 331 333 335 336 337 339 344 353 4 10 9 4 351 331 322 321 322 319 316 315